| time (UTC) | temp F | wind direction | speed MPH | gust MPH | rain 1hr in | rain 24hr in | rain mn in | humidity % | barometer mb |
| 20260903184015 | 91 | 135 | 4.0 | 8.0 | 0.00 | 0.00 | 0.00 | 42 | 1014.1 |
| 20260903183017 | 91 | 0.0 | 3.0 | 0.00 | 0.00 | 0.00 | 44 | 1014.3 | |
| 20260903182037 | 92 | 158 | 4.0 | 8.0 | 0.00 | 0.00 | 0.00 | 44 | 1014.6 |
| 20260903181020 | 91 | 225 | 4.0 | 8.0 | 0.00 | 0.00 | 0.00 | 44 | 1014.6 |
| 20260903180015 | 90 | 293 | 1.0 | 3.0 | 0.00 | 0.00 | 0.00 | 45 | 1014.7 |
| 20260903175016 | 91 | 158 | 3.0 | 7.0 | 0.00 | 0.00 | 0.00 | 45 | 1014.9 |
| 20260903174016 | 89 | 270 | 2.0 | 6.0 | 0.00 | 0.00 | 0.00 | 48 | 1014.8 |
| 20260903173019 | 90 | 203 | 3.0 | 6.0 | 0.00 | 0.00 | 0.00 | 47 | 1014.9 |
| 20260903172017 | 89 | 0.0 | 4.0 | 0.00 | 0.00 | 0.00 | 48 | 1014.9 | |
| 20260903171021 | 89 | 158 | 2.0 | 4.0 | 0.00 | 0.00 | 0.00 | 49 | 1014.9 |
| 20260903170016 | 88 | 135 | 2.0 | 6.0 | 0.00 | 0.00 | 0.00 | 49 | 1014.8 |
| 20260903165015 | 86 | 135 | 2.0 | 5.0 | 0.00 | 0.00 | 0.00 | 54 | 1014.8 |
| 20260903164017 | 86 | 113 | 3.0 | 5.0 | 0.00 | 0.00 | 0.00 | 58 | 1014.8 |
| 20260903163036 | 85 | 135 | 3.0 | 6.0 | 0.00 | 0.00 | 0.00 | 61 | 1014.8 |
| 20260903162016 | 84 | 135 | 3.0 | 5.0 | 0.00 | 0.00 | 0.00 | 62 | 1014.7 |
| 20260903161018 | 83 | 135 | 3.0 | 6.0 | 0.00 | 0.00 | 0.00 | 64 | 1014.7 |
| 20260903160016 | 82 | 135 | 3.0 | 5.0 | 0.00 | 0.00 | 0.00 | 66 | 1014.7 |
| 20260903155015 | 82 | 135 | 4.0 | 7.0 | 0.00 | 0.00 | 0.00 | 66 | 1014.8 |
| 20260903154015 | 81 | 135 | 3.0 | 6.0 | 0.00 | 0.00 | 0.00 | 68 | 1014.7 |
| 20260903153016 | 80 | 113 | 3.0 | 6.0 | 0.00 | 0.00 | 0.00 | 69 | 1014.7 |
| 20260903152017 | 79 | 135 | 4.0 | 7.0 | 0.00 | 0.00 | 0.00 | 69 | 1014.6 |
| 20260903151018 | 79 | 113 | 4.0 | 8.0 | 0.00 | 0.00 | 0.00 | 71 | 1014.7 |
| 20260903150016 | 78 | 135 | 4.0 | 9.0 | 0.00 | 0.00 | 0.00 | 73 | 1014.5 |
| 20260903145015 | 78 | 135 | 4.0 | 8.0 | 0.00 | 0.00 | 0.00 | 74 | 1014.6 |
| 20260903144016 | 77 | 135 | 4.0 | 7.0 | 0.00 | 0.00 | 0.00 | 74 | 1014.5 |
| 20260903143017 | 77 | 135 | 4.0 | 7.0 | 0.00 | 0.00 | 0.00 | 74 | 1014.6 |
| 20260903142017 | 77 | 135 | 4.0 | 7.0 | 0.00 | 0.00 | 0.00 | 72 | 1014.6 |
| 20260903141015 | 77 | 113 | 3.0 | 4.0 | 0.00 | 0.00 | 0.00 | 72 | 1014.5 |
| 20260903140017 | 77 | 90 | 4.0 | 8.0 | 0.00 | 0.00 | 0.00 | 73 | 1014.2 |
| 20260903135035 | 77 | 113 | 5.0 | 7.0 | 0.00 | 0.00 | 0.00 | 73 | 1014.2 |
| 20260903134020 | 77 | 113 | 5.0 | 8.0 | 0.00 | 0.00 | 0.00 | 76 | 1014.3 |
| 20260903133017 | 77 | 113 | 5.0 | 12.0 | 0.00 | 0.00 | 0.00 | 76 | 1014.4 |
| 20260903132017 | 77 | 135 | 5.0 | 10.0 | 0.00 | 0.00 | 0.00 | 75 | 1014.2 |
| 20260903131017 | 77 | 135 | 5.0 | 9.0 | 0.00 | 0.00 | 0.00 | 74 | 1014.0 |
| 20260903130017 | 78 | 135 | 6.0 | 11.0 | 0.00 | 0.00 | 0.00 | 72 | 1014.1 |
| 20260903125018 | 79 | 158 | 6.0 | 10.0 | 0.00 | 0.00 | 0.00 | 71 | 1014.2 |
| 20260903124017 | 80 | 158 | 7.0 | 14.0 | 0.00 | 0.00 | 0.00 | 67 | 1014.1 |
| 20260903123017 | 81 | 135 | 3.0 | 8.0 | 0.00 | 0.00 | 0.00 | 69 | 1014.1 |
| 20260903122036 | 81 | 135 | 3.0 | 6.0 | 0.00 | 0.00 | 0.00 | 70 | 1014.0 |
| 20260903121018 | 81 | 135 | 2.0 | 4.0 | 0.00 | 0.00 | 0.00 | 71 | 1013.8 |
| 20260903120015 | 80 | 0.0 | 1.0 | 0.00 | 0.00 | 0.00 | 72 | 1013.7 | |
| 20260903115035 | 81 | 0.0 | 1.0 | 0.00 | 0.00 | 0.00 | 71 | 1013.6 | |
| 20260903114017 | 81 | 0.0 | 1.0 | 0.00 | 0.00 | 0.00 | 71 | 1013.5 | |
| 20260903113015 | 81 | 135 | 1.0 | 2.0 | 0.00 | 0.00 | 0.00 | 70 | 1013.5 |
| 20260903112038 | 81 | 135 | 1.0 | 3.0 | 0.00 | 0.00 | 0.00 | 69 | 1013.5 |
| 20260903111035 | 81 | 0.0 | 2.0 | 0.00 | 0.00 | 0.00 | 69 | 1013.5 | |
| 20260903110018 | 81 | 0.0 | 1.0 | 0.00 | 0.00 | 0.00 | 68 | 1013.5 | |
| 20260903105016 | 81 | 158 | 1.0 | 4.0 | 0.00 | 0.00 | 0.00 | 68 | 1013.5 |
| 20260903104037 | 81 | 135 | 1.0 | 3.0 | 0.00 | 0.00 | 0.00 | 68 | 1013.4 |
| 20260903103018 | 81 | 135 | 2.0 | 4.0 | 0.00 | 0.00 | 0.00 | 68 | 1013.4 |
| 20260903102037 | 81 | 135 | 2.0 | 4.0 | 0.00 | 0.00 | 0.00 | 68 | 1013.4 |
| 20260903101017 | 81 | 158 | 2.0 | 4.0 | 0.00 | 0.00 | 0.00 | 68 | 1013.5 |
| 20260903100017 | 81 | 135 | 2.0 | 4.0 | 0.00 | 0.00 | 0.00 | 68 | 1013.4 |
| 20260903095019 | 81 | 135 | 2.0 | 4.0 | 0.00 | 0.00 | 0.00 | 69 | 1013.5 |
| 20260903094018 | 81 | 135 | 2.0 | 3.0 | 0.00 | 0.00 | 0.00 | 69 | 1013.6 |
| 20260903093018 | 81 | 135 | 2.0 | 4.0 | 0.00 | 0.00 | 0.00 | 68 | 1013.5 |
| 20260903092017 | 81 | 135 | 2.0 | 3.0 | 0.00 | 0.00 | 0.00 | 68 | 1013.5 |
| 20260903091017 | 82 | 135 | 2.0 | 5.0 | 0.00 | 0.00 | 0.00 | 68 | 1013.7 |
| 20260903090019 | 82 | 135 | 1.0 | 3.0 | 0.00 | 0.00 | 0.00 | 65 | 1013.5 |
| 20260903085017 | 82 | 0.0 | 2.0 | 0.00 | 0.00 | 0.00 | 63 | 1013.5 | |
| 20260903084017 | 83 | 180 | 1.0 | 3.0 | 0.00 | 0.00 | 0.00 | 61 | 1013.5 |
| 20260903083017 | 83 | 0.0 | 0.0 | 0.00 | 0.00 | 0.00 | 62 | 1013.6 | |
| 20260903082039 | 83 | 0.0 | 0.0 | 0.00 | 0.00 | 0.00 | 60 | 1013.7 | |
| 20260903081018 | 84 | 158 | 2.0 | 5.0 | 0.00 | 0.00 | 0.00 | 59 | 1013.7 |
| 20260903080020 | 84 | 203 | 2.0 | 4.0 | 0.00 | 0.00 | 0.00 | 58 | 1013.8 |
| 20260903075021 | 84 | 225 | 1.0 | 2.0 | 0.00 | 0.00 | 0.00 | 58 | 1013.8 |
| 20260903074035 | 84 | 203 | 2.0 | 4.0 | 0.00 | 0.00 | 0.00 | 58 | 1013.8 |
| 20260903073017 | 85 | 203 | 1.0 | 4.0 | 0.00 | 0.00 | 0.00 | 56 | 1013.8 |
| 20260903072017 | 86 | 158 | 3.0 | 5.0 | 0.00 | 0.00 | 0.00 | 54 | 1013.8 |
| 20260903071017 | 86 | 158 | 2.0 | 5.0 | 0.00 | 0.00 | 0.00 | 54 | 1013.7 |
| 20260903070017 | 86 | 158 | 3.0 | 6.0 | 0.00 | 0.00 | 0.00 | 53 | 1013.7 |
| 20260903065016 | 86 | 158 | 3.0 | 7.0 | 0.00 | 0.00 | 0.00 | 54 | 1013.6 |
| 20260903064016 | 86 | 203 | 2.0 | 4.0 | 0.00 | 0.00 | 0.00 | 55 | 1013.6 |
| 20260903063019 | 86 | 158 | 3.0 | 5.0 | 0.00 | 0.00 | 0.00 | 54 | 1013.6 |
| 20260903062036 | 87 | 135 | 5.0 | 11.0 | 0.00 | 0.00 | 0.00 | 52 | 1013.6 |
| 20260903061017 | 86 | 135 | 3.0 | 7.0 | 0.00 | 0.00 | 0.00 | 51 | 1013.3 |
| 20260903060038 | 85 | 113 | 2.0 | 4.0 | 0.00 | 0.00 | 0.00 | 52 | 1013.2 |
| 20260903055016 | 85 | 113 | 2.0 | 3.0 | 0.00 | 0.00 | 0.00 | 53 | 1013.2 |
| 20260903054018 | 85 | 113 | 2.0 | 3.0 | 0.00 | 0.00 | 0.00 | 53 | 1013.1 |
| 20260903052018 | 85 | 135 | 1.0 | 3.0 | 0.00 | 0.00 | 0.00 | 53 | 1013.2 |
| 20260903051018 | 85 | 0.0 | 1.0 | 0.00 | 0.00 | 0.00 | 52 | 1013.2 | |
| 20260903050020 | 86 | 135 | 1.0 | 4.0 | 0.00 | 0.00 | 0.00 | 51 | 1013.2 |
| 20260903045018 | 86 | 135 | 2.0 | 4.0 | 0.00 | 0.00 | 0.00 | 52 | 1013.1 |
| 20260903044018 | 86 | 0.0 | 1.0 | 0.00 | 0.00 | 0.00 | 51 | 1013.1 | |
| 20260903043018 | 87 | 0.0 | 1.0 | 0.00 | 0.00 | 0.00 | 50 | 1013.4 | |
| 20260903042018 | 87 | 248 | 4.0 | 7.0 | 0.00 | 0.00 | 0.00 | 49 | 1013.2 |
| 20260903041017 | 87 | 270 | 7.0 | 10.0 | 0.00 | 0.00 | 0.00 | 48 | 1013.4 |
| 20260903040016 | 90 | 248 | 10.0 | 15.0 | 0.00 | 0.00 | 0.00 | 44 | 1013.5 |
| 20260903035037 | 91 | 248 | 6.0 | 9.0 | 0.00 | 0.00 | 0.00 | 42 | 1013.4 |
| 20260903034018 | 90 | 225 | 3.0 | 9.0 | 0.00 | 0.00 | 0.00 | 43 | 1013.1 |
| 20260903033017 | 90 | 203 | 2.0 | 5.0 | 0.00 | 0.00 | 0.00 | 44 | 1012.7 |
| 20260903032016 | 89 | 158 | 2.0 | 4.0 | 0.00 | 0.00 | 0.00 | 45 | 1012.5 |
| 20260903030017 | 89 | 0.0 | 0.0 | 0.00 | 0.00 | 0.00 | 45 | 1012.0 | |
| 20260903025016 | 89 | 0.0 | 0.0 | 0.00 | 0.00 | 0.00 | 44 | 1011.7 | |
| 20260903024020 | 90 | 0.0 | 0.0 | 0.00 | 0.00 | 0.00 | 38 | 1011.8 | |
| 20260903023019 | 91 | 0.0 | 0.0 | 0.00 | 0.00 | 0.00 | 39 | 1011.8 | |
| 20260903022016 | 92 | 0.0 | 0.0 | 0.00 | 0.00 | 0.00 | 36 | 1011.8 | |
| 20260903021016 | 93 | 0.0 | 0.0 | 0.00 | 0.00 | 0.00 | 34 | 1011.6 | |
| 20260903020039 | 94 | 0.0 | 1.0 | 0.00 | 0.00 | 0.00 | 33 | 1011.6 | |
| 20260903014018 | 95 | 0.0 | 0.0 | 0.00 | 0.00 | 0.00 | 32 | 1011.5 | |
| 20260903013037 | 95 | 293 | 1.0 | 5.0 | 0.00 | 0.00 | 0.00 | 31 | 1011.3 |
| 20260903012019 | 96 | 293 | 3.0 | 8.0 | 0.00 | 0.00 | 0.00 | 30 | 1011.2 |
| 20260903011019 | 96 | 0.0 | 1.0 | 0.00 | 0.00 | 0.00 | 30 | 1011.2 | |
| 20260903010017 | 97 | 225 | 1.0 | 4.0 | 0.00 | 0.00 | 0.00 | 30 | 1011.4 |
| 20260903005018 | 97 | 248 | 1.0 | 5.0 | 0.00 | 0.00 | 0.00 | 30 | 1011.4 |
| 20260903004016 | 97 | 293 | 1.0 | 4.0 | 0.00 | 0.00 | 0.00 | 31 | 1011.4 |
| 20260903003020 | 97 | 248 | 1.0 | 6.0 | 0.00 | 0.00 | 0.00 | 31 | 1011.4 |
| 20260903002016 | 97 | 293 | 3.0 | 6.0 | 0.00 | 0.00 | 0.00 | 31 | 1011.5 |
| 20260903001016 | 99 | 293 | 3.0 | 7.0 | 0.00 | 0.00 | 0.00 | 30 | 1011.5 |
| 20260903000017 | 98 | 338 | 1.0 | 5.0 | 0.00 | 0.00 | 0.00 | 31 | 1011.4 |
| 20260902235016 | 98 | 270 | 3.0 | 8.0 | 0.00 | 0.00 | 0.00 | 30 | 1011.5 |
| 20260902233017 | 98 | 248 | 5.0 | 9.0 | 0.00 | 0.00 | 0.00 | 32 | 1011.8 |
| 20260902232017 | 98 | 248 | 1.0 | 5.0 | 0.00 | 0.00 | 0.00 | 32 | 1012.0 |
| 20260902231017 | 97 | 270 | 1.0 | 4.0 | 0.00 | 0.00 | 0.00 | 33 | 1012.0 |
| 20260902230017 | 97 | 248 | 4.0 | 7.0 | 0.00 | 0.00 | 0.00 | 34 | 1012.3 |
| 20260902225018 | 97 | 248 | 3.0 | 10.0 | 0.00 | 0.00 | 0.00 | 33 | 1012.4 |
| 20260902224037 | 98 | 270 | 5.0 | 9.0 | 0.00 | 0.00 | 0.00 | 34 | 1012.4 |
| 20260902223017 | 97 | 338 | 5.0 | 9.0 | 0.00 | 0.00 | 0.00 | 34 | 1012.5 |
| 20260902222016 | 98 | 203 | 2.0 | 6.0 | 0.00 | 0.00 | 0.00 | 34 | 1012.7 |
| 20260902221017 | 97 | 248 | 3.0 | 7.0 | 0.00 | 0.00 | 0.00 | 34 | 1012.7 |
| 20260902220019 | 97 | 293 | 4.0 | 10.0 | 0.00 | 0.00 | 0.00 | 34 | 1012.9 |
| 20260902215015 | 97 | 293 | 2.0 | 8.0 | 0.00 | 0.00 | 0.00 | 35 | 1013.1 |
| 20260902214016 | 97 | 0.0 | 1.0 | 0.00 | 0.00 | 0.00 | 35 | 1013.3 | |
| 20260902213019 | 97 | 203 | 3.0 | 6.0 | 0.00 | 0.00 | 0.00 | 36 | 1013.3 |
| 20260902212021 | 96 | 270 | 6.0 | 10.0 | 0.00 | 0.00 | 0.00 | 36 | 1013.4 |
| 20260902211039 | 96 | 270 | 6.0 | 12.0 | 0.00 | 0.00 | 0.00 | 37 | 1013.6 |
| 20260902210018 | 95 | 338 | 2.0 | 6.0 | 0.00 | 0.00 | 0.00 | 37 | 1013.6 |
| 20260902205017 | 96 | 270 | 2.0 | 9.0 | 0.00 | 0.00 | 0.00 | 37 | 1013.7 |
| 20260902204039 | 95 | 270 | 6.0 | 12.0 | 0.00 | 0.00 | 0.00 | 38 | 1013.8 |
| 20260902203016 | 95 | 248 | 6.0 | 13.0 | 0.00 | 0.00 | 0.00 | 38 | 1014.2 |
| 20260902202017 | 95 | 203 | 2.0 | 6.0 | 0.00 | 0.00 | 0.00 | 39 | 1014.4 |
| 20260902201017 | 94 | 293 | 1.0 | 5.0 | 0.00 | 0.00 | 0.00 | 40 | 1014.4 |
| 20260902200016 | 95 | 248 | 5.0 | 10.0 | 0.00 | 0.00 | 0.00 | 40 | 1014.6 |
| 20260902194037 | 95 | 203 | 5.0 | 11.0 | 0.00 | 0.00 | 0.00 | 40 | 1015.1 |
| 20260902193044 | 94 | 248 | 4.0 | 8.0 | 0.00 | 0.00 | 0.00 | 43 | 1015.3 |
| 20260902192040 | 94 | 248 | 5.0 | 10.0 | 0.00 | 0.00 | 0.00 | 43 | 1015.4 |
| 20260902191015 | 93 | 248 | 6.0 | 10.0 | 0.00 | 0.00 | 0.00 | 44 | 1015.6 |
| 20260902190018 | 93 | 270 | 4.0 | 10.0 | 0.00 | 0.00 | 0.00 | 46 | 1015.8 |
| 20260902185035 | 93 | 293 | 1.0 | 9.0 | 0.00 | 0.00 | 0.00 | 45 | 1015.8 |